This is the latest recevied weather packets stored in our database for station/object KC7UNY-13. If no packets are shown the sender has not sent any weather packets the latest 10 day(s).
| Time | Temp. | Humidity | Pressure | Rain* | Wind** | Luminosity | Snow |
|---|---|---|---|---|---|---|---|
| 1776967764 | 26.67° C | 24% | 1013.6 hPa | 0 mm | - | 709 W/m² | - |
| 1776967461 | 27.22° C | 24% | 1013.5 hPa | 0 mm | - | 736 W/m² | - |
| 1776967159 | 27.22° C | 25% | 1013.5 hPa | 0 mm | - | 723 W/m² | - |
| 1776966855 | 26.11° C | 25% | 1013.4 hPa | 0 mm | - | 714 W/m² | - |
| 1776966551 | 26.67° C | 24% | 1013.4 hPa | 0 mm | - | 692 W/m² | - |
| 1776966247 | 26.67° C | 24% | 1013.4 hPa | 0 mm | - | 691 W/m² | - |
| 1776965942 | 26.11° C | 26% | 1013.6 hPa | 0 mm | - | 655 W/m² | - |
| 1776965639 | 26.11° C | 25% | 1013.6 hPa | 0 mm | - | 626 W/m² | - |
| 1776965337 | 25.56° C | 25% | 1013.7 hPa | 0 mm | - | 650 W/m² | - |
| 1776965035 | 26.11° C | 25% | 1013.6 hPa | 0 mm | - | 636 W/m² | - |
| 1776964734 | 26.11° C | 25% | 1013.7 hPa | 0 mm | - | 600 W/m² | - |
| 1776964429 | 26.11° C | 25% | 1013.7 hPa | 0 mm | - | 605 W/m² | - |
| 1776964128 | 25° C | 26% | 1013.6 hPa | 0 mm | - | 583 W/m² | - |
| 1776963822 | 25.56° C | 26% | 1013.7 hPa | 0 mm | - | 513 W/m² | - |
| 1776963521 | 25.56° C | 26% | 1013.7 hPa | 0 mm | - | 515 W/m² | - |
| 1776963218 | 25° C | 27% | 1013.5 hPa | 0 mm | - | 497 W/m² | - |
| 1776962915 | 24.44° C | 28% | 1013.7 hPa | 0 mm | - | 514 W/m² | - |
| 1776962610 | 25.56° C | 26% | 1013.6 hPa | 0 mm | - | 438 W/m² | - |
| 1776962309 | 25.56° C | 28% | 1013.6 hPa | 0 mm | - | 428 W/m² | - |
| 1776962004 | 24.44° C | 28% | 1013.8 hPa | 0 mm | - | 448 W/m² | - |
| 1776961700 | 23.89° C | 28% | 1013.6 hPa | 0 mm | - | 437 W/m² | - |
| 1776961396 | 24.44° C | 27% | 1013.8 hPa | 0 mm | - | 392 W/m² | - |
| 1776961092 | 24.44° C | 27% | 1013.6 hPa | 0 mm | - | 373 W/m² | - |
| 1776960788 | 25° C | 27% | 1013.8 hPa | 0 mm | - | 423 W/m² | - |
| 1776960483 | 24.44° C | 28% | 1013.9 hPa | 0 mm | - | 425 W/m² | - |
* Rain latest hour (hover to see other rain measurements)
** Current wind speed in m/s (hover to see current wind gust speed)